Location: Unspecified
(0.0000°N, 0.0000°E)
Time: 09:30:19
(UTC+00:00)

BlueWalker 3 - Pass Details

Date: 12 November 2025
Orbit: 456 x 463 km, 53.2° (Epoch: 13 November)

Event Time Altitude Azimuth Distance (km) Brightness Sun altitude
Rises 18:13:00 0° 212° (SSW) 2,478 6.3 -6.8°
Reaches altitude 10° 18:15:09 10° 210° (SSW) 1,603 5.3 -7.4°
Maximum altitude 18:18:45 77° 123° (ESE) 474 1.7 -8.2°
Drops below altitude 10° 18:22:21 10° 37° (NE) 1,598 4.0 -9.1°
Enters shadow 18:22:46 - 37° (NE) 1,766 4.2 -9.2°
